| time (UTC) | temp F | wind direction | speed MPH | gust MPH | rain 1hr in | rain 24hr in | rain mn in | humidity % | barometer mb |
| 20260503224322 | 53 | 340 | 1.0 | 3.0 | 0.00 | 0.00 | 0.00 | 39 | 1012.6 |
| 20260503223820 | 54 | 11 | 0.0 | 1.0 | 0.00 | 0.00 | 0.00 | 38 | 1012.5 |
| 20260503223317 | 54 | 352 | 1.0 | 2.0 | 0.00 | 0.00 | 0.00 | 36 | 1012.4 |
| 20260503222813 | 55 | 46 | 0.0 | 0.0 | 0.00 | 0.00 | 0.00 | 37 | 1012.4 |
| 20260503222311 | 56 | 346 | 4.0 | 8.0 | 0.00 | 0.00 | 0.00 | 35 | 1012.5 |
| 20260503221809 | 56 | 326 | 1.0 | 1.0 | 0.00 | 0.00 | 0.00 | 36 | 1012.5 |
| 20260503221308 | 56 | 34 | 0.0 | 0.0 | 0.00 | 0.00 | 0.00 | 39 | 1012.3 |
| 20260503220803 | 56 | 331 | 1.0 | 3.0 | 0.00 | 0.00 | 0.00 | 36 | 1012.3 |
| 20260503220300 | 56 | 47 | 3.0 | 5.0 | 0.00 | 0.00 | 0.00 | 37 | 1012.5 |
| 20260503215757 | 57 | 337 | 2.0 | 3.0 | 0.00 | 0.00 | 0.00 | 37 | 1012.4 |
| 20260503215254 | 56 | 335 | 2.0 | 3.0 | 0.00 | 0.00 | 0.00 | 35 | 1012.4 |
| 20260503214752 | 56 | 7 | 4.0 | 7.0 | 0.00 | 0.00 | 0.00 | 36 | 1012.3 |
| 20260503214249 | 56 | 310 | 1.0 | 2.0 | 0.00 | 0.00 | 0.00 | 38 | 1012.6 |
| 20260503213747 | 55 | 306 | 6.0 | 7.0 | 0.00 | 0.00 | 0.00 | 34 | 1012.6 |
| 20260503213244 | 56 | 319 | 0.0 | 0.0 | 0.00 | 0.00 | 0.00 | 38 | 1012.4 |
| 20260503212740 | 55 | 348 | 1.0 | 2.0 | 0.00 | 0.00 | 0.00 | 39 | 1012.5 |
| 20260503212238 | 57 | 235 | 1.0 | 1.0 | 0.00 | 0.00 | 0.00 | 37 | 1012.0 |
| 20260503211736 | 56 | 336 | 2.0 | 3.0 | 0.00 | 0.00 | 0.00 | 37 | 1012.3 |
| 20260503211231 | 56 | 299 | 3.0 | 5.0 | 0.00 | 0.00 | 0.00 | 38 | 1012.3 |
| 20260503210727 | 57 | 325 | 2.0 | 5.0 | 0.00 | 0.00 | 0.00 | 35 | 1012.6 |
| 20260503210225 | 57 | 307 | 3.0 | 3.0 | 0.00 | 0.00 | 0.00 | 37 | 1012.2 |
| 20260503205720 | 57 | 345 | 2.0 | 3.0 | 0.00 | 0.00 | 0.00 | 38 | 1012.0 |
| 20260503205216 | 57 | 17 | 0.0 | 0.0 | 0.00 | 0.00 | 0.00 | 40 | 1012.3 |
| 20260503204713 | 56 | 313 | 3.0 | 3.0 | 0.00 | 0.00 | 0.00 | 39 | 1012.5 |
| 20260503204211 | 56 | 303 | 3.0 | 3.0 | 0.00 | 0.00 | 0.00 | 39 | 1012.4 |
| 20260503203708 | 57 | 353 | 3.0 | 3.0 | 0.00 | 0.00 | 0.00 | 39 | 1012.5 |
| 20260503203205 | 56 | 79 | 0.0 | 0.0 | 0.00 | 0.00 | 0.00 | 40 | 1012.8 |
| 20260503202702 | 56 | 321 | 2.0 | 2.0 | 0.00 | 0.00 | 0.00 | 42 | 1012.3 |
| 20260503202200 | 56 | 5 | 4.0 | 6.0 | 0.00 | 0.00 | 0.00 | 42 | 1012.6 |
| 20260503201658 | 55 | 26 | 1.0 | 2.0 | 0.00 | 0.00 | 0.00 | 45 | 1012.5 |
| 20260503201155 | 55 | 243 | 6.0 | 7.0 | 0.00 | 0.00 | 0.00 | 40 | 1012.8 |
| 20260503200651 | 54 | 327 | 1.0 | 2.0 | 0.00 | 0.00 | 0.00 | 43 | 1012.6 |
| 20260503200148 | 55 | 357 | 3.0 | 5.0 | 0.00 | 0.00 | 0.00 | 43 | 1013.0 |
| 20260503195644 | 56 | 312 | 5.0 | 7.0 | 0.00 | 0.00 | 0.00 | 43 | 1012.8 |
| 20260503195142 | 57 | 333 | 0.0 | 0.0 | 0.00 | 0.00 | 0.00 | 46 | 1013.0 |
| 20260503194639 | 55 | 43 | 2.0 | 3.0 | 0.00 | 0.00 | 0.00 | 48 | 1012.9 |
| 20260503194134 | 54 | 103 | 0.0 | 0.0 | 0.00 | 0.00 | 0.00 | 43 | 1013.0 |
| 20260503193631 | 55 | 290 | 5.0 | 7.0 | 0.00 | 0.00 | 0.00 | 46 | 1013.0 |
| 20260503193126 | 53 | 9 | 2.0 | 3.0 | 0.00 | 0.00 | 0.00 | 47 | 1013.1 |
| 20260503192622 | 54 | 203 | 1.0 | 2.0 | 0.00 | 0.00 | 0.00 | 45 | 1013.2 |
| 20260503192118 | 51 | 348 | 2.0 | 3.0 | 0.00 | 0.00 | 0.00 | 46 | 1013.4 |
| 20260503191615 | 51 | 209 | 2.0 | 3.0 | 0.00 | 0.00 | 0.00 | 45 | 1013.2 |
| 20260503191112 | 51 | 21 | 0.0 | 0.0 | 0.00 | 0.00 | 0.00 | 48 | 1013.5 |
| 20260503190609 | 51 | 23 | 0.0 | 1.0 | 0.00 | 0.00 | 0.00 | 49 | 1013.5 |
| 20260503190106 | 51 | 333 | 1.0 | 2.0 | 0.00 | 0.00 | 0.00 | 49 | 1013.7 |
| 20260503185603 | 53 | 300 | 5.0 | 8.0 | 0.00 | 0.00 | 0.00 | 44 | 1013.5 |
| 20260503185102 | 51 | 329 | 3.0 | 6.0 | 0.00 | 0.00 | 0.00 | 44 | 1013.6 |
| 20260503184558 | 51 | 341 | 2.0 | 2.0 | 0.00 | 0.00 | 0.00 | 46 | 1013.6 |
| 20260503184055 | 50 | 347 | 1.0 | 2.0 | 0.00 | 0.00 | 0.00 | 48 | 1013.8 |
| 20260503183551 | 50 | 355 | 3.0 | 6.0 | 0.00 | 0.00 | 0.00 | 47 | 1013.9 |
| 20260503183049 | 50 | 350 | 3.0 | 3.0 | 0.00 | 0.00 | 0.00 | 49 | 1013.9 |
| 20260503182547 | 50 | 344 | 3.0 | 5.0 | 0.00 | 0.00 | 0.00 | 46 | 1013.7 |
| 20260503182045 | 50 | 41 | 2.0 | 2.0 | 0.00 | 0.00 | 0.00 | 46 | 1013.8 |
| 20260503181542 | 51 | 323 | 3.0 | 3.0 | 0.00 | 0.00 | 0.00 | 50 | 1013.6 |
| 20260503181038 | 51 | 110 | 3.0 | 6.0 | 0.00 | 0.00 | 0.00 | 45 | 1013.6 |
| 20260503180535 | 51 | 350 | 0.0 | 0.0 | 0.00 | 0.00 | 0.00 | 45 | 1013.6 |
| 20260503180032 | 52 | 325 | 0.0 | 0.0 | 0.00 | 0.00 | 0.00 | 46 | 1013.7 |
| 20260503175530 | 51 | 7 | 4.0 | 6.0 | 0.00 | 0.00 | 0.00 | 45 | 1013.7 |
| 20260503175027 | 50 | 302 | 5.0 | 6.0 | 0.00 | 0.00 | 0.00 | 44 | 1014.1 |
| 20260503174524 | 51 | 20 | 1.0 | 1.0 | 0.00 | 0.00 | 0.00 | 44 | 1014.0 |
| 20260503174020 | 49 | 331 | 5.0 | 6.0 | 0.00 | 0.00 | 0.00 | 47 | 1013.7 |
| 20260503173515 | 48 | 313 | 2.0 | 3.0 | 0.00 | 0.00 | 0.00 | 49 | 1013.9 |
| 20260503173012 | 49 | 337 | 4.0 | 6.0 | 0.00 | 0.00 | 0.00 | 48 | 1013.9 |
| 20260503172510 | 48 | 358 | 0.0 | 0.0 | 0.00 | 0.00 | 0.00 | 50 | 1013.8 |
| 20260503172006 | 49 | 294 | 3.0 | 3.0 | 0.00 | 0.00 | 0.00 | 50 | 1013.7 |
| 20260503171503 | 49 | 354 | 2.0 | 3.0 | 0.00 | 0.00 | 0.00 | 48 | 1013.7 |
| 20260503171001 | 50 | 323 | 2.0 | 2.0 | 0.00 | 0.00 | 0.00 | 50 | 1013.5 |
| 20260503170457 | 50 | 42 | 5.0 | 6.0 | 0.00 | 0.00 | 0.00 | 47 | 1013.9 |
| 20260503150849 | 49 | 29 | 4.0 | 6.0 | 0.00 | 0.00 | 0.00 | 51 | 1014.0 |
| 20260503150345 | 50 | 2 | 2.0 | 2.0 | 0.00 | 0.00 | 0.00 | 53 | 1013.8 |
| 20260503140309 | 44 | 359 | 2.0 | 2.0 | 0.00 | 0.00 | 0.00 | 71 | 1014.6 |
| 20260503131239 | 43 | 12 | 0.0 | 0.0 | 0.00 | 0.00 | 0.00 | 74 | 1014.9 |
| 20260503130737 | 44 | 329 | 0.0 | 1.0 | 0.00 | 0.00 | 0.00 | 75 | 1014.8 |
| 20260503130234 | 44 | 351 | 0.0 | 0.0 | 0.00 | 0.00 | 0.00 | 75 | 1014.3 |
| 20260503120200 | 40 | 339 | 0.0 | 0.0 | 0.00 | 0.00 | 0.00 | 84 | 1014.4 |
| 20260503110627 | 36 | 40 | 0.0 | 0.0 | 0.00 | 0.00 | 0.00 | 99 | 1014.1 |
| 20260503110124 | 35 | 55 | 0.0 | 0.0 | 0.00 | 0.00 | 0.00 | 99 | 1014.1 |
| 20260503081440 | 30 | 49 | 0.0 | 0.0 | 0.00 | 0.00 | 0.00 | 99 | 1014.2 |
| 20260503080937 | 30 | 40 | 0.0 | 0.0 | 0.00 | 0.00 | 0.00 | 99 | 1014.5 |
| 20260503080433 | 30 | 40 | 0.0 | 0.0 | 0.00 | 0.00 | 0.00 | 99 | 1014.5 |
| 20260503072910 | 31 | 40 | 0.0 | 0.0 | 0.00 | 0.00 | 0.00 | 99 | 1014.4 |
| 20260503072407 | 31 | 40 | 0.0 | 0.0 | 0.00 | 0.00 | 0.00 | 98 | 1014.3 |
| 20260503071904 | 31 | 40 | 0.0 | 0.0 | 0.00 | 0.00 | 0.00 | 98 | 1014.3 |
| 20260503071402 | 31 | 40 | 0.0 | 0.0 | 0.00 | 0.00 | 0.00 | 98 | 1014.7 |
| 20260503070857 | 31 | 40 | 0.0 | 0.0 | 0.00 | 0.00 | 0.00 | 98 | 1014.6 |
| 20260503070355 | 32 | 40 | 0.0 | 0.0 | 0.00 | 0.00 | 0.00 | 98 | 1014.6 |
| 20260503060320 | 33 | 40 | 0.0 | 0.0 | 0.00 | 0.00 | 0.00 | 96 | 1015.1 |
| 20260503054808 | 33 | 40 | 0.0 | 0.0 | 0.00 | 0.00 | 0.00 | 96 | 1015.0 |
| 20260503054304 | 33 | 40 | 0.0 | 0.0 | 0.00 | 0.00 | 0.00 | 95 | 1015.1 |
| 20260503053802 | 33 | 40 | 0.0 | 0.0 | 0.00 | 0.00 | 0.00 | 95 | 1015.1 |
| 20260503053301 | 34 | 40 | 0.0 | 0.0 | 0.00 | 0.00 | 0.00 | 95 | 1015.1 |
| 20260503052756 | 34 | 40 | 0.0 | 0.0 | 0.00 | 0.00 | 0.00 | 95 | 1015.2 |
| 20260503052253 | 34 | 40 | 0.0 | 0.0 | 0.00 | 0.00 | 0.00 | 95 | 1015.2 |
| 20260503051749 | 34 | 40 | 0.0 | 0.0 | 0.00 | 0.00 | 0.00 | 95 | 1015.2 |
| 20260503051246 | 34 | 40 | 0.0 | 0.0 | 0.00 | 0.00 | 0.00 | 95 | 1015.5 |
| 20260503050742 | 34 | 40 | 0.0 | 0.0 | 0.00 | 0.00 | 0.00 | 95 | 1015.6 |
| 20260503050233 | 34 | 40 | 0.0 | 0.0 | 0.00 | 0.00 | 0.00 | 96 | 1015.8 |
| 20260503045730 | 34 | 40 | 0.0 | 0.0 | 0.00 | 0.00 | 0.00 | 95 | 1015.7 |
| 20260503045228 | 34 | 40 | 0.0 | 0.0 | 0.00 | 0.00 | 0.00 | 96 | 1015.7 |
| 20260503044724 | 34 | 40 | 0.0 | 0.0 | 0.00 | 0.00 | 0.00 | 96 | 1015.6 |
| 20260503044222 | 34 | 40 | 0.0 | 0.0 | 0.00 | 0.00 | 0.00 | 94 | 1015.8 |
| 20260503043718 | 34 | 40 | 0.0 | 0.0 | 0.00 | 0.00 | 0.00 | 94 | 1015.7 |
| 20260503043216 | 34 | 40 | 0.0 | 0.0 | 0.00 | 0.00 | 0.00 | 95 | 1015.9 |
| 20260503042712 | 34 | 40 | 0.0 | 0.0 | 0.00 | 0.00 | 0.00 | 95 | 1015.8 |
| 20260503042208 | 34 | 40 | 0.0 | 0.0 | 0.00 | 0.00 | 0.00 | 94 | 1015.8 |
| 20260503041704 | 34 | 40 | 0.0 | 0.0 | 0.00 | 0.00 | 0.00 | 94 | 1016.0 |
| 20260503041203 | 35 | 40 | 0.0 | 0.0 | 0.00 | 0.00 | 0.00 | 93 | 1015.9 |
| 20260503040659 | 35 | 40 | 0.0 | 0.0 | 0.00 | 0.00 | 0.00 | 93 | 1015.9 |
| 20260503040157 | 35 | 40 | 0.0 | 0.0 | 0.00 | 0.00 | 0.00 | 92 | 1015.9 |
| 20260503035654 | 35 | 40 | 0.0 | 0.0 | 0.00 | 0.39 | 0.39 | 91 | 1015.7 |
| 20260503035151 | 36 | 40 | 0.0 | 0.0 | 0.00 | 0.39 | 0.39 | 89 | 1015.7 |
| 20260503034648 | 36 | 40 | 0.0 | 0.0 | 0.00 | 0.39 | 0.39 | 88 | 1015.9 |
| 20260503034145 | 36 | 40 | 0.0 | 0.0 | 0.00 | 0.39 | 0.39 | 87 | 1015.9 |
| 20260503033642 | 36 | 40 | 0.0 | 0.0 | 0.00 | 0.39 | 0.39 | 87 | 1016.0 |
| 20260503033140 | 36 | 40 | 0.0 | 0.0 | 0.00 | 0.39 | 0.39 | 87 | 1015.9 |
| 20260503032638 | 37 | 40 | 0.0 | 0.0 | 0.00 | 0.39 | 0.39 | 87 | 1016.1 |
| 20260503032137 | 37 | 40 | 0.0 | 0.0 | 0.00 | 0.39 | 0.39 | 85 | 1016.1 |
| 20260503031634 | 37 | 40 | 0.0 | 0.0 | 0.00 | 0.39 | 0.39 | 85 | 1016.1 |
| 20260503031131 | 37 | 40 | 0.0 | 0.0 | 0.00 | 0.39 | 0.39 | 86 | 1015.9 |
| 20260503030627 | 37 | 40 | 0.0 | 0.0 | 0.00 | 0.39 | 0.39 | 85 | 1016.1 |
| 20260503030124 | 38 | 40 | 0.0 | 0.0 | 0.00 | 0.39 | 0.39 | 83 | 1016.3 |
| 20260503025621 | 38 | 40 | 0.0 | 0.0 | 0.00 | 0.39 | 0.39 | 81 | 1016.2 |
| 20260503025119 | 39 | 40 | 0.0 | 0.0 | 0.00 | 0.39 | 0.39 | 81 | 1016.3 |
| 20260503024615 | 39 | 19 | 0.0 | 0.0 | 0.00 | 0.39 | 0.39 | 80 | 1016.1 |
| 20260503024112 | 39 | 340 | 0.0 | 0.0 | 0.00 | 0.39 | 0.39 | 79 | 1016.2 |
| 20260503023609 | 38 | 39 | 0.0 | 0.0 | 0.00 | 0.39 | 0.39 | 83 | 1016.3 |
| 20260503023106 | 39 | 39 | 0.0 | 0.0 | 0.00 | 0.39 | 0.39 | 81 | 1016.3 |
| 20260503022602 | 40 | 35 | 0.0 | 0.0 | 0.00 | 0.39 | 0.39 | 77 | 1016.4 |
| 20260503022056 | 41 | 32 | 0.0 | 0.0 | 0.00 | 0.39 | 0.39 | 74 | 1016.4 |
| 20260503021554 | 41 | 11 | 0.0 | 0.0 | 0.00 | 0.39 | 0.39 | 74 | 1016.3 |
| 20260503021051 | 42 | 10 | 0.0 | 0.0 | 0.00 | 0.39 | 0.39 | 70 | 1016.2 |
| 20260503020548 | 42 | 10 | 0.0 | 0.0 | 0.00 | 0.39 | 0.39 | 69 | 1016.5 |
| 20260503020045 | 42 | 11 | 0.0 | 0.0 | 0.00 | 0.39 | 0.39 | 71 | 1016.4 |
| 20260503015541 | 42 | 39 | 0.0 | 0.0 | 0.00 | 0.39 | 0.39 | 71 | 1016.4 |
| 20260503015039 | 43 | 36 | 0.0 | 0.0 | 0.00 | 0.39 | 0.39 | 74 | 1016.5 |
| 20260503014535 | 43 | 19 | 0.0 | 0.0 | 0.00 | 0.39 | 0.39 | 67 | 1016.2 |
| 20260503014033 | 42 | 55 | 0.0 | 0.0 | 0.00 | 0.39 | 0.39 | 67 | 1016.2 |
| 20260503013530 | 43 | 15 | 0.0 | 0.0 | 0.00 | 0.39 | 0.39 | 69 | 1016.2 |
| 20260503013027 | 43 | 23 | 0.0 | 0.0 | 0.00 | 0.39 | 0.39 | 69 | 1016.5 |
| 20260503012525 | 43 | 23 | 0.0 | 0.0 | 0.00 | 0.39 | 0.39 | 68 | 1016.2 |
| 20260503012021 | 44 | 46 | 0.0 | 0.0 | 0.00 | 0.39 | 0.39 | 64 | 1016.1 |
| 20260503011517 | 44 | 35 | 0.0 | 0.0 | 0.00 | 0.39 | 0.39 | 64 | 1016.2 |
| 20260503011015 | 44 | 35 | 0.0 | 0.0 | 0.00 | 0.39 | 0.39 | 61 | 1016.0 |
| 20260503010511 | 44 | 347 | 0.0 | 0.0 | 0.00 | 0.39 | 0.39 | 66 | 1015.8 |
| 20260503010009 | 45 | 21 | 0.0 | 0.0 | 0.00 | 0.39 | 0.39 | 72 | 1015.7 |
| 20260503005506 | 46 | 21 | 0.0 | 0.0 | 0.00 | 0.39 | 0.39 | 62 | 1015.9 |
| 20260503005003 | 46 | 15 | 0.0 | 0.0 | 0.00 | 0.39 | 0.39 | 61 | 1015.9 |
| 20260503004459 | 46 | 340 | 0.0 | 0.0 | 0.00 | 0.39 | 0.39 | 60 | 1015.7 |
| 20260503003957 | 46 | 28 | 0.0 | 0.0 | 0.00 | 0.39 | 0.39 | 59 | 1015.7 |
| 20260503003453 | 46 | 341 | 0.0 | 0.0 | 0.00 | 0.39 | 0.39 | 59 | 1015.8 |
| 20260503002950 | 47 | 20 | 0.0 | 0.0 | 0.00 | 0.39 | 0.39 | 61 | 1015.5 |
| 20260503002447 | 47 | 2 | 0.0 | 0.0 | 0.00 | 0.39 | 0.39 | 60 | 1015.7 |
| 20260503001943 | 47 | 17 | 0.0 | 0.0 | 0.00 | 0.39 | 0.39 | 60 | 1015.6 |
| 20260503001441 | 48 | 350 | 0.0 | 0.0 | 0.00 | 0.39 | 0.39 | 58 | 1015.4 |
| 20260503000938 | 48 | 17 | 0.0 | 0.0 | 0.00 | 0.39 | 0.39 | 57 | 1015.5 |
| 20260503000437 | 48 | 8 | 0.0 | 0.0 | 0.00 | 0.39 | 0.39 | 58 | 1015.4 |
| 20260502235932 | 48 | 340 | 0.0 | 0.0 | 0.00 | 0.39 | 0.39 | 58 | 1015.5 |
| 20260502235429 | 48 | 341 | 1.0 | 2.0 | 0.00 | 0.39 | 0.39 | 54 | 1015.5 |
| 20260502234927 | 48 | 11 | 0.0 | 0.0 | 0.00 | 0.39 | 0.39 | 55 | 1015.5 |
| 20260502234423 | 49 | 344 | 0.0 | 0.0 | 0.00 | 0.39 | 0.39 | 56 | 1015.4 |
| 20260502233920 | 49 | 18 | 0.0 | 0.0 | 0.00 | 0.39 | 0.39 | 57 | 1015.1 |
| 20260502233415 | 49 | 2 | 0.0 | 0.0 | 0.00 | 0.39 | 0.39 | 56 | 1015.4 |
| 20260502232913 | 48 | 352 | 0.0 | 0.0 | 0.00 | 0.39 | 0.39 | 57 | 1015.0 |
| 20260502232409 | 49 | 350 | 0.0 | 0.0 | 0.00 | 0.39 | 0.39 | 59 | 1014.9 |
| 20260502231906 | 49 | 352 | 0.0 | 0.0 | 0.00 | 0.39 | 0.39 | 54 | 1014.8 |
| 20260502231403 | 50 | 357 | 0.0 | 0.0 | 0.00 | 0.39 | 0.39 | 54 | 1015.0 |
| 20260502230901 | 50 | 17 | 0.0 | 0.0 | 0.00 | 0.39 | 0.39 | 52 | 1015.0 |
| 20260502230359 | 50 | 335 | 0.0 | 1.0 | 0.00 | 0.39 | 0.39 | 52 | 1014.9 |
| 20260502225856 | 50 | 352 | 0.0 | 0.0 | 0.00 | 0.39 | 0.39 | 52 | 1014.8 |
| 20260502225352 | 51 | 26 | 2.0 | 2.0 | 0.00 | 0.39 | 0.39 | 50 | 1014.8 |
| 20260502224850 | 51 | 324 | 1.0 | 2.0 | 0.00 | 0.39 | 0.39 | 52 | 1014.7 |